Location: Churchill Northern Studies Centre
(58.7378°N, 93.8201°W)
Time: 06:08:07
(UTC-05:00)

ISS - Pass Details

Date: 11 October 2017
Orbit: 401 x 408 km, 51.6° (Epoch: 19 October)

Event Time Altitude Azimuth Distance (km) Brightness Sun altitude
Rises 19:21:51 0° 264° (W) 2,326 2.3 -8.9°
Reaches altitude 10° 19:24:31 10° 241° (WSW) 1,466 0.0 -9.3°
Maximum altitude 19:26:32 15° 203° (SSW) 1,180 -1.2 -9.5°
Drops below altitude 10° 19:28:34 10° 164° (SSE) 1,465 -1.2 -9.8°
Enters shadow 19:30:23 - 146° (SE) 2,022 -0.6 -10.0°
